Wind_Speed
25 25 25 26 27 28 29 30 30 30 29 28 26 25 24 23 22 21 21 21 21 22 22 22 23 23 23 23 24 25 26 26 25 25 25 26 26 27 27 28 29 29 30 30
25 25 26 26 27 28 29 29 30 30 30 28 28 26 25 24 23 23 23 22 22 23 24 24 25 25 25 26 25 26 26 27 27 26 26 27 28 29 29 30 30 31 32 32
27 26 26 28 27 28 29 29 29 29 29 28 27 26 25 25 24 24 24 24 24 24 25 25 26 27 27 26 27 27 27 27 28 28 28 30 31 31 31 32 32 33 33 34
28 28 30 28 28 28 28 28 28 28 28 28 28 27 27 27 26 25 26 26 26 26 26 27 28 28 29 28 27 28 29 29 30 29 30 31 32 32 32 32 33 34 34 34
29 30 30 28 28 28 28 27 28 28 28 28 27 27 27 28 28 27 27 28 28 28 29 29 30 30 30 29 29 29 29 30 31 32 32 33 34 34 33 34 34 34 34 34
31 31 31 29 29 28 28 29 29 29 29 29 29 28 27 28 29 29 29 29 30 30 30 30 30 30 31 30 30 30 30 30 31 33 34 34 34 34 34 35 34 33 33 33
31 32 31 30 29 29 29 29 29 30 31 30 29 29 28 29 29 30 31 31 31 31 31 31 31 31 31 31 30 30 31 31 32 33 34 34 34 34 34 34 34 34 33 33
32 32 32 30 30 30 30 30 30 30 31 31 30 30 30 31 32 32 32 33 33 33 33 32 33 33 32 31 31 31 31 32 33 33 33 34 34 34 34 34 34 34 33 33
32 32 31 31 31 30 29 29 29 29 29 30 31 32 31 32 33 33 33 33 33 33 34 34 33 33 31 31 32 32 33 33 33 33 33 34 33 34 34 34 33 33 33 32
32 31 30 30 30 30 30 30 29 29 29 30 31 32 32 32 32 32 32 32 33 34 34 34 33 34 33 33 33 33 34 34 34 34 34 34 34 34 33 33 33 32 32 32
32 32 31 31 31 30 30 31 30 30 30 30 31 31 31 31 32 32 32 32 32 32 33 33 33 33 35 34 34 34 35 35 35 35 35 35 34 34 34 34 34 34 33 33
32 32 32 31 31 31 31 31 31 30 30 30 30 30 30 31 32 32 31 32 32 31 31 31 33 34 34 33 34 34 35 35 35 35 35 35 35 35 35 35 35 35 34 34
31 31 31 30 30 30 30 30 30 30 30 30 30 31 31 31 32 32 32 32 32 31 32 32 33 33 34 34 34 34 35 35 35 35 34 34 34 35 35 35 35 34 34 33
31 31 31 31 31 31 30 30 31 31 31 31 31 31 32 32 32 32 31 31 31 31 31 31 32 32 33 33 34 34 34 34 34 34 34 34 35 35 35 34 34 34 34 33
31 31 32 31 31 31 31 32 32 32 32 32 32 31 31 31 32 32 31 31 30 30 31 31 32 33 33 33 33 33 33 33 33 33 33 34 33 33 33 33 33 33 33 33
31 31 32 32 32 32 33 32 32 32 32 32 32 32 31 31 32 31 31 31 30 30 31 31 32 32 32 33 33 33 32 31 31 31 31 31 31 31 31 32 32 32 32 31
31 31 31 32 32 32 32 33 33 33 32 32 32 32 32 31 31 31 31 30 30 31 31 32 32 32 33 32 32 32 31 30 29 28 28 29 29 29 30 31 31 30 30 30
30 30 30 30 30 30 31 32 33 32 32 31 31 32 32 31 31 31 30 30 31 31 31 31 31 31 30 29 29 29 28 29 28 27 28 28 29 29 28 28 28 28 28 27
29 28 29 30 30 31 31 31 31 31 31 30 30 31 30 30 29 28 28 29 30 30 30 30 30 29 28 28 27 26 27 27 27 27 27 27 27 27 27 27 27 27 26 26
27 27 27 28 28 28 28 29 29 30 30 29 30 30 29 28 27 27 27 27 27 27 27 27 27 27 26 26 25 25 24 25 25 26 26 26 26 27 27 27 26 26 25 25
27 27 26 26 25 25 26 26 26 27 27 27 27 26 26 26 26 25 25 25 25 25 25 25 24 25 25 24 23 24 23 24 24 25 25 25 25 26 26 25 24 24 24 24
24 24 24 23 23 23 23 23 24 24 25 25 25 24 24 24 24 24 24 24 24 24 24 24 23 24 23 23 24 24 24 24 24 24 24 24 24 24 24 24 23 24 23 23
22 22 21 21 21 21 22 22 22 23 23 23 23 23 23 23 23 23 23 23 23 23 23 23 23 23 23 23 23 24 24 24 23 24 24 24 23 23 23 23 23 23 23 23
21 21 20 20 20 19 20 20 21 22 22 22 22 22 22 21 21 21 22 22 22 22 22 22 23 22 23 23 23 23 23 24 24 24 24 23 23 23 23 23 23 24 24 23
18 19 19 18 18 19 19 19 19 19 20 20 21 20 19 18 19 20 20 21 21 21 22 23 23 22 23 22 22 23 23 24 24 24 24 23 23 23 23 23 24 24 24 24
18 17 17 18 18 18 18 18 18 18 18 18 18 18 18 18 18 19 19 20 20 20 21 21 22 22 22 22 22 23 23 24 24 24 23 23 23 23 23 22 22 22 22 22
16 16 16 16 16 17 17 17 17 17 18 17 17 17 17 18 18 18 19 19 20 20 21 21 21 21 22 22 22 23 23 23 23 22 22 22 22 22 22 22 21 21 22 21
Wind_Direction
255 256 258 259 260 264 267 270 272 275 277 280 283 283 283 284 287 288 290 291 291 291 287 287 287 289 290 290 290 291 290 290 290 291 292 293 294 296 297 297 297 297 297 296
258 259 260 261 261 263 265 268 271 274 277 280 280 280 278 280 283 286 289 290 290 290 289 287 289 289 288 288 289 290 290 290 291 291 292 293 295 296 297 297 297 297 297 296
261 263 264 264 265 267 267 267 269 273 276 279 279 278 278 279 283 284 285 286 289 292 292 289 289 290 290 288 288 288 289 290 290 289 291 293 294 296 296 296 296 297 297 296
263 265 266 269 269 268 268 268 269 272 274 277 279 278 279 281 282 282 285 287 288 289 290 289 288 289 289 288 290 291 290 289 290 290 291 294 295 296 296 296 297 297 296 295
263 265 268 269 269 270 269 269 270 272 272 275 277 278 279 281 282 283 284 284 286 288 288 287 289 289 289 289 291 292 292 290 290 290 292 294 295 296 295 294 294 295 295 295
264 266 267 269 270 271 271 270 270 272 272 273 276 277 280 282 283 284 284 285 285 287 288 288 289 289 290 290 290 292 292 291 291 292 294 294 295 295 295 295 294 296 298 297
265 267 268 270 271 272 273 273 272 272 273 273 274 277 278 279 280 283 284 285 285 285 286 287 288 289 291 290 290 291 293 293 293 294 295 295 295 295 296 297 297 298 297 298
264 265 267 270 273 274 275 275 274 273 273 272 273 275 276 278 280 282 283 282 282 284 285 286 286 288 287 287 289 291 293 294 294 295 296 296 295 296 296 297 297 297 296 296
262 264 267 269 272 274 276 276 276 275 273 273 275 276 276 278 280 281 281 281 282 284 285 285 285 285 284 286 289 291 292 293 294 295 296 297 297 297 297 297 297 297 296 295
261 262 265 269 271 272 274 275 275 274 273 273 275 277 278 279 281 282 282 281 283 283 284 285 284 284 284 287 289 290 292 295 296 296 296 295 295 295 296 295 296 297 296 295
262 264 267 269 271 272 273 273 274 274 274 276 277 277 279 281 283 284 284 286 286 284 284 284 284 284 286 286 288 289 291 294 294 294 293 293 293 294 295 296 296 296 295 295
264 266 268 270 271 273 273 273 273 275 276 278 278 279 281 282 283 285 286 288 287 285 283 283 284 286 289 289 289 290 292 293 293 293 293 292 292 293 294 295 295 295 295 295
264 265 266 268 269 271 272 273 274 275 277 279 278 278 279 281 284 286 286 286 286 286 286 287 287 287 289 289 290 292 293 294 293 293 293 292 292 293 293 294 294 294 294 295
264 266 267 268 270 271 272 273 275 278 278 279 280 280 280 281 283 284 285 286 286 288 289 288 289 290 291 291 291 292 293 294 294 292 292 293 292 292 293 294 295 295 295 295
264 266 268 269 269 270 271 273 275 277 277 278 279 280 280 282 282 283 285 286 287 288 289 290 290 291 291 292 292 293 294 294 294 293 293 294 293 293 294 294 294 294 295 295
263 266 267 269 270 270 271 273 275 276 277 278 278 279 280 282 282 283 284 287 288 289 290 291 292 292 293 292 292 294 294 294 294 294 295 295 296 296 296 297 297 296 296 295
264 266 268 268 269 270 272 274 275 276 277 279 280 279 281 281 281 283 285 286 288 291 292 293 294 295 295 293 292 293 294 294 295 297 297 298 297 297 298 299 299 298 298 298
265 267 268 269 270 271 273 274 275 276 278 281 282 283 282 281 282 283 284 286 289 291 292 292 293 295 295 293 292 293 295 295 294 296 299 300 299 298 299 300 300 300 299 298
267 267 268 270 270 270 271 272 274 277 278 282 284 284 284 283 283 284 285 287 289 290 291 292 292 294 295 296 294 294 296 297 296 297 299 301 301 301 300 300 300 300 300 300
268 267 269 271 271 270 270 271 274 277 279 281 283 283 284 284 285 286 287 288 290 290 292 292 293 294 295 296 295 296 297 299 299 300 301 301 301 302 301 300 300 300 301 302
268 269 270 272 274 273 273 274 275 277 279 280 281 283 283 284 284 285 286 287 289 291 292 293 295 296 296 296 297 296 298 301 302 302 302 302 302 303 302 301 301 301 302 303
269 271 271 271 274 274 274 275 276 276 278 278 280 283 284 284 284 284 286 289 290 291 293 294 296 297 296 296 297 298 300 301 302 302 302 302 303 304 304 304 303 303 303 303
270 272 273 273 273 273 273 274 275 276 277 279 280 282 284 285 285 284 285 286 288 289 291 293 295 297 297 297 297 299 300 301 302 304 304 305 305 306 306 306 306 305 304 303
269 271 273 275 275 274 276 277 276 276 277 278 280 281 283 284 285 285 285 286 288 290 291 292 294 295 296 298 299 300 301 301 303 304 305 306 307 307 305 305 305 306 305 304
272 273 274 275 274 275 277 277 276 276 278 279 281 282 283 285 286 287 288 289 291 292 294 294 295 296 297 297 298 300 301 302 303 304 304 305 305 305 304 304 305 306 306 306
275 275 276 275 274 275 275 275 274 277 279 281 282 284 285 287 288 290 291 292 294 296 297 299 300 299 299 299 299 300 301 302 303 304 304 304 305 306 306 306 306 307 308 308
276 276 275 275 278 278 277 275 274 276 279 282 285 287 289 289 290 291 292 293 295 298 300 301 302 302 302 302 302 302 303 303 304 305 305 305 306 307 308 308 308 309 309 310
Height
5871 5872 5873 5873 5874 5874 5875 5875 5875 5875 5875 5876 5875 5875 5875 5874 5873 5873 5872 5870 5869 5867 5866 5865 5863 5861 5860 5858 5856 5854 5852 5850 5848 5846 5844 5842 5839 5837 5834 5832 5829 5827 5825 5822
5865 5866 5866 5867 5868 5868 5868 5869 5869 5869 5869 5869 5869 5869 5869 5868 5867 5867 5866 5865 5863 5861 5860 5858 5857 5855 5853 5851 5849 5847 5845 5843 5841 5840 5837 5835 5832 5830 5827 5824 5822 5819 5817 5814
5859 5859 5859 5860 5861 5862 5862 5862 5863 5863 5863 5863 5863 5862 5862 5862 5861 5861 5860 5858 5857 5855 5853 5852 5850 5848 5846 5844 5842 5840 5838 5836 5834 5832 5830 5827 5825 5822 5819 5816 5814 5811 5808 5805
5852 5853 5853 5856 5855 5855 5855 5855 5856 5856 5856 5856 5856 5856 5856 5855 5854 5854 5853 5852 5850 5848 5846 5845 5843 5841 5839 5837 5835 5833 5831 5829 5826 5824 5822 5819 5816 5813 5811 5808 5805 5802 5799 5796
5845 5845 5846 5847 5847 5848 5848 5849 5849 5849 5849 5849 5849 5849 5849 5848 5847 5846 5846 5845 5843 5841 5839 5837 5835 5833 5831 5829 5826 5824 5822 5820 5818 5816 5813 5811 5808 5805 5802 5799 5796 5793 5790 5787
5838 5838 5839 5841 5841 5840 5841 5841 5842 5841 5841 5841 5841 5842 5842 5841 5840 5839 5838 5837 5835 5833 5831 5830 5827 5825 5823 5820 5818 5816 5814 5811 5809 5806 5804 5802 5799 5796 5793 5790 5787 5784 5781 5778
5830 5830 5831 5833 5833 5834 5835 5835 5834 5833 5833 5834 5834 5834 5834 5833 5832 5831 5829 5828 5826 5825 5823 5821 5819 5817 5815 5812 5810 5807 5805 5803 5800 5798 5795 5793 5790 5787 5784 5781 5778 5775 5773 5770
5823 5823 5825 5826 5826 5827 5827 5826 5825 5825 5825 5825 5825 5825 5825 5824 5823 5822 5821 5819 5817 5816 5814 5812 5810 5808 5806 5804 5802 5799 5797 5794 5792 5789 5786 5784 5781 5778 5775 5772 5769 5767 5764 5760
5815 5817 5817 5818 5818 5818 5818 5818 5817 5817 5817 5817 5816 5816 5816 5815 5814 5812 5811 5810 5808 5806 5805 5803 5801 5799 5797 5795 5793 5790 5788 5785 5782 5780 5777 5774 5772 5769 5766 5763 5760 5757 5754 5751
5807 5808 5809 5810 5810 5810 5810 5810 5809 5809 5808 5808 5808 5807 5806 5805 5804 5802 5801 5800 5798 5797 5795 5793 5792 5790 5788 5785 5783 5781 5779 5776 5773 5770 5767 5765 5762 5759 5756 5753 5751 5748 5745 5743
5799 5800 5801 5802 5802 5802 5802 5801 5801 5800 5800 5799 5798 5798 5797 5795 5794 5793 5792 5790 5788 5786 5785 5783 5782 5780 5778 5775 5773 5771 5769 5766 5763 5760 5758 5755 5752 5749 5747 5744 5741 5738 5736 5733
5791 5792 5793 5794 5793 5794 5793 5793 5793 5792 5791 5790 5789 5788 5787 5786 5785 5783 5782 5780 5778 5777 5775 5773 5771 5770 5767 5765 5763 5761 5758 5756 5753 5750 5748 5745 5742 5740 5737 5734 5731 5728 5726 5723
5782 5783 5784 5784 5785 5785 5785 5784 5784 5783 5782 5781 5781 5780 5779 5777 5776 5775 5773 5771 5769 5767 5766 5764 5762 5760 5758 5755 5753 5751 5748 5745 5743 5740 5737 5735 5732 5730 5727 5725 5721 5719 5716 5714
5773 5774 5775 5775 5776 5776 5776 5776 5775 5775 5774 5773 5772 5770 5769 5768 5767 5766 5764 5762 5761 5759 5757 5755 5753 5751 5748 5746 5743 5741 5738 5735 5732 5730 5727 5725 5722 5720 5717 5715 5712 5710 5707 5704
5765 5765 5766 5766 5766 5766 5766 5766 5766 5766 5765 5764 5763 5761 5761 5760 5758 5757 5756 5754 5752 5751 5748 5746 5744 5741 5739 5736 5734 5731 5728 5725 5723 5720 5717 5715 5712 5710 5707 5705 5703 5700 5697 5695
5756 5757 5757 5757 5757 5757 5757 5757 5757 5756 5755 5755 5754 5753 5752 5750 5749 5748 5746 5745 5744 5742 5740 5737 5735 5732 5730 5727 5724 5721 5719 5716 5713 5710 5708 5705 5703 5700 5698 5696 5693 5691 5688 5686
5747 5748 5748 5748 5748 5748 5748 5747 5747 5747 5746 5745 5744 5744 5743 5742 5741 5739 5738 5736 5735 5733 5731 5729 5727 5724 5721 5718 5715 5713 5710 5707 5704 5702 5699 5697 5694 5692 5690 5687 5685 5682 5680 5677
5738 5739 5739 5739 5738 5738 5739 5738 5738 5738 5737 5737 5735 5734 5734 5733 5732 5731 5729 5728 5727 5725 5723 5720 5718 5716 5713 5710 5707 5705 5702 5699 5697 5694 5691 5689 5687 5685 5682 5680 5677 5675 5672 5670
5729 5730 5730 5729 5729 5729 5729 5729 5729 5729 5728 5728 5727 5726 5725 5724 5723 5722 5721 5720 5718 5717 5715 5712 5710 5708 5705 5703 5700 5698 5695 5692 5689 5687 5684 5682 5679 5677 5674 5672 5670 5667 5665 5662
5720 5721 5721 5721 5720 5720 5720 5720 5721 5720 5720 5720 5719 5718 5717 5716 5715 5714 5713 5711 5710 5709 5707 5705 5703 5700 5698 5696 5693 5691 5688 5686 5683 5680 5678 5676 5673 5670 5668 5665 5663 5660 5658 5655
5712 5713 5713 5713 5713 5713 5713 5713 5712 5712 5712 5712 5711 5710 5709 5708 5707 5706 5705 5704 5703 5701 5700 5698 5696 5694 5691 5689 5686 5684 5681 5679 5677 5674 5672 5669 5666 5664 5661 5658 5656 5654 5651 5649
5705 5705 5706 5706 5706 5706 5705 5705 5705 5705 5705 5704 5704 5703 5702 5701 5700 5699 5698 5697 5696 5695 5693 5691 5689 5687 5685 5682 5680 5678 5675 5673 5671 5668 5665 5663 5660 5657 5654 5652 5649 5647 5645 5642
5698 5698 5699 5699 5699 5699 5698 5698 5698 5698 5698 5698 5697 5696 5695 5694 5693 5693 5692 5691 5689 5688 5686 5685 5683 5680 5678 5676 5674 5672 5669 5667 5664 5662 5659 5656 5654 5651 5648 5646 5643 5641 5639 5636
5692 5692 5692 5692 5692 5692 5692 5692 5692 5692 5691 5691 5690 5690 5689 5688 5687 5686 5685 5684 5683 5681 5680 5678 5676 5674 5672 5670 5667 5665 5663 5660 5658 5655 5653 5650 5647 5645 5642 5640 5638 5635 5633 5630
5687 5686 5687 5687 5687 5687 5686 5686 5686 5685 5685 5685 5684 5683 5682 5681 5681 5680 5679 5678 5676 5675 5673 5671 5669 5667 5665 5663 5661 5659 5656 5654 5651 5649 5646 5644 5641 5639 5636 5634 5631 5629 5626 5623
5681 5681 5681 5681 5681 5681 5680 5680 5680 5680 5679 5679 5678 5678 5677 5676 5675 5674 5673 5672 5670 5669 5667 5665 5663 5661 5659 5656 5654 5652 5650 5647 5645 5642 5640 5637 5635 5632 5630 5627 5625 5622 5620 5617
5676 5676 5676 5676 5675 5675 5674 5674 5675 5675 5674 5674 5673 5673 5671 5671 5670 5669 5667 5666 5665 5663 5661 5659 5657 5655 5652 5650 5648 5645 5643 5640 5638 5635 5633 5630 5628 5626 5623 5621 5619 5616 5614 5611